GFSWCAN_850_dewp_132.txt.gz
Dewpoint
-3 -2 -1 -1 -1 -2 -2 -2 -3 -4 -4 -7 -10 -3 -4 -5 -7 -9 -7 -8 -9 -4 -3 -5 -6 -8 -9 -8 -4 -5 -5 -5 -5 -4 -2 -3 -2 -2 -2 -3 -2 -2 -2 -3 -1 -0 -1 -3 -5 -4 -3 -3 -3 -3
-2 -3 -1 -1 -1 -1 -1 -1 -2 -4 -4 -5 -9 -6 -4 -5 -6 -8 -8 -9 -12 -7 -5 -5 -7 -8 -10 -10 -6 -5 -5 -5 -5 -3 -3 -3 -2 -4 -4 -3 -4 -3 -4 -3 -3 -4 -4 -3 -4 -4 -4 -3 -3 -3
-3 -2 -2 -1 -1 -1 -1 -2 -3 -3 -3 -5 -10 -11 -5 -5 -6 -7 -7 -8 -10 -7 -8 -7 -6 -7 -7 -7 -7 -6 -5 -4 -5 -5 -5 -4 -4 -5 -4 -4 -5 -6 -3 -2 -2 -4 -2 -3 -3 -3 -5 -4 -4 -3
-6 -2 -3 -2 -1 -1 -1 -2 -3 -3 -3 -4 -6 -9 -10 -9 -10 -9 -10 -10 -10 -10 -5 -6 -7 -7 -7 -8 -8 -8 -6 -5 -5 -6 -5 -5 -4 -5 -4 -6 -6 -7 -4 -4 -2 -3 -2 -2 -3 -4 -5 -5 -4 -3
-8 -4 -3 -3 -2 -1 -1 -2 -3 -3 -2 -2 -2 -3 -5 -6 -7 -9 -10 -10 -11 -12 -5 -6 -6 -7 -8 -8 -9 -8 -6 -5 -5 -5 -5 -5 -5 -5 -5 -5 -6 -6 -8 -6 -6 -6 -4 -3 -3 -4 -6 -4 -4 -5
-11 -7 -3 -3 -3 -1 -1 -1 -2 -3 -3 -3 -2 -2 -3 -5 -6 -8 -7 -6 -8 -8 -9 -4 -6 -5 -7 -7 -7 -7 -8 -6 -6 -6 -5 -5 -5 -6 -5 -4 -6 -6 -4 -4 -4 -4 -4 -3 -4 -5 -6 -5 -4 -5
-10 -10 -4 -3 -4 -2 -1 -1 -1 -2 -3 -3 -2 -2 -3 -5 -7 -7 -6 -6 -8 -10 -9 -6 -5 -4 -6 -6 -7 -6 -6 -6 -6 -5 -5 -5 -5 -5 -5 -3 -7 -5 -3 -3 -3 -3 -3 -3 -5 -5 -5 -6 -6 -6
-12 -10 -6 -4 -4 -3 -1 -1 -1 -2 -2 -2 -2 -2 -4 -6 -7 -5 -6 -5 -7 -8 -8 -5 -4 -4 -5 -6 -4 -5 -5 -5 -4 -4 -3 -4 -5 -5 -4 -6 -6 -4 -2 -3 -3 -3 -4 -5 -5 -5 -6 -7 -8 -8
-13 -11 -6 -4 -4 -4 -3 -1 -2 -2 -2 -2 -2 -4 -6 -6 -5 -3 -4 -4 -6 -8 -5 -7 -5 -3 -3 -3 -3 -3 -4 -6 -4 -4 -3 -3 -4 -3 -4 -3 -2 -3 -4 -5 -5 -5 -6 -6 -7 -7 -7 -8 -8 -9
-12 -13 -9 -4 -4 -5 -3 -3 -1 -1 -2 -2 -5 -6 -6 -3 -3 -4 -5 -6 -6 -6 -7 -6 -6 -3 -3 -3 -4 -4 -3 -4 -6 -4 -3 -3 -3 -6 -6 -6 -5 -4 -6 -7 -6 -6 -7 -7 -7 -8 -9 -10 -10 -11
-12 -12 -11 -5 -5 -5 -4 -2 -2 -2 -2 -3 -5 -5 -3 -4 -6 -6 -5 -7 -6 -6 -7 -6 -5 -3 -2 -4 -5 -5 -5 -5 -3 -4 -3 -3 -4 -5 -7 -8 -7 -6 -5 -5 -6 -8 -10 -10 -10 -10 -11 -11 -12 -12
-12 -12 -11 -8 -7 -5 -3 -3 -3 -2 -3 -5 -4 -3 -5 -6 -6 -8 -9 -6 -5 -6 -6 -5 -6 -3 -2 -2 -3 -4 -3 -3 -3 -3 -2 -4 -8 -7 -7 -7 -6 -7 -8 -9 -10 -10 -10 -11 -13 -13 -13 -13 -13 -13
-11 -13 -12 -10 -9 -7 -3 -3 -3 -2 -4 -5 -5 -5 -6 -6 -8 -9 -7 -5 -5 -5 -5 -5 -8 -5 -2 -3 -3 -4 -3 -4 -3 -3 -5 -7 -7 -7 -7 -7 -8 -9 -9 -9 -10 -11 -13 -14 -14 -14 -14 -14 -13 -13
-9 -12 -13 -12 -11 -9 -3 -4 -3 -4 -5 -5 -5 -6 -8 -6 -8 -7 -7 -7 -8 -6 -6 -7 -6 -5 -3 -4 -5 -3 -5 -4 -5 -6 -6 -9 -7 -7 -7 -8 -8 -8 -9 -10 -10 -13 -14 -15 -15 -15 -14 -14 -14 -13
-10 -12 -11 -10 -12 -9 -4 -3 -4 -4 -4 -5 -7 -7 -8 -8 -7 -8 -7 -7 -6 -6 -6 -4 -3 -3 -5 -6 -4 -5 -2 -2 -5 -7 -10 -7 -8 -7 -8 -8 -8 -9 -12 -14 -14 -15 -15 -15 -15 -15 -15 -15 -15 -14
-10 -9 -9 -10 -11 -6 -4 -4 -4 -4 -5 -6 -6 -6 -6 -6 -5 -5 -5 -4 -4 -5 -5 -4 -4 -5 -6 -5 -3 -6 -6 -6 -8 -10 -7 -7 -7 -7 -8 -8 -10 -13 -14 -15 -15 -15 -15 -15 -15 -15 -15 -15 -15 -15
-9 -9 -10 -10 -8 -5 -4 -4 -4 -5 -5 -6 -6 -5 -5 -6 -5 -5 -4 -4 -3 -3 -7 -5 -5 -4 -6 -5 -3 -4 -6 -9 -7 -7 -8 -7 -7 -8 -9 -11 -13 -13 -14 -14 -14 -14 -14 -14 -14 -14 -14 -14 -14 -14
-10 -9 -7 -5 -7 -6 -4 -5 -6 -6 -6 -6 -6 -6 -6 -5 -5 -5 -5 -4 -3 -2 -2 -4 -3 -3 -7 -5 -7 -9 -7 -8 -8 -7 -7 -7 -8 -9 -11 -13 -13 -14 -14 -14 -14 -14 -13 -14 -14 -14 -14 -14 -14 -14
-11 -9 -8 -6 -5 -5 -4 -5 -7 -7 -7 -7 -6 -6 -5 -5 -5 -4 -4 -3 -3 -2 -3 -3 -7 -5 -7 -8 -8 -7 -7 -8 -8 -7 -8 -9 -10 -12 -13 -13 -13 -13 -13 -13 -14 -15 -15 -15 -15 -15 -14 -14 -15 -15
-12 -12 -10 -6 -5 -5 -5 -5 -7 -7 -7 -6 -7 -6 -7 -6 -6 -6 -5 -4 -3 -3 -4 -5 -7 -6 -6 -6 -6 -6 -7 -8 -8 -9 -10 -11 -11 -13 -13 -14 -14 -14 -14 -14 -14 -13 -14 -15 -15 -16 -16 -16 -16 -16
-7 -6 -6 -4 -4 -5 -6 -6 -6 -6 -6 -6 -7 -8 -7 -6 -6 -6 -6 -4 -4 -4 -7 -6 -6 -6 -7 -7 -7 -7 -8 -8 -9 -9 -10 -10 -12 -13 -13 -14 -14 -14 -14 -14 -15 -14 -14 -15 -15 -16 -16 -16 -17 -17
-7 -4 -4 -5 -6 -6 -6 -6 -6 -6 -7 -7 -7 -8 -7 -6 -6 -6 -6 -5 -6 -6 -6 -7 -7 -7 -7 -7 -8 -8 -8 -9 -9 -11 -11 -12 -12 -12 -12 -13 -13 -14 -15 -14 -14 -14 -14 -15 -16 -15 -16 -16 -16 -16
-6 -6 -5 -6 -6 -6 -6 -5 -7 -8 -9 -6 -6 -7 -8 -6 -7 -7 -7 -7 -7 -8 -8 -8 -8 -7 -7 -7 -8 -8 -9 -10 -11 -11 -12 -12 -13 -13 -13 -14 -14 -14 -15 -15 -15 -15 -16 -17 -17 -16 -16 -17 -16 -16
-5 -6 -5 -6 -7 -6 -6 -5 -5 -6 -6 -7 -7 -7 -7 -7 -7 -9 -11 -9 -9 -9 -8 -8 -8 -7 -7 -7 -7 -8 -9 -10 -11 -11 -11 -12 -13 -14 -13 -13 -13 -13 -13 -14 -15 -15 -16 -16 -17 -17 -17 -17 -17 -17
-11 -8 -7 -8 -6 -6 -6 -6 -6 -8 -9 -9 -8 -9 -9 -9 -12 -13 -12 -10 -9 -9 -9 -8 -8 -8 -8 -8 -7 -8 -8 -9 -9 -10 -11 -12 -12 -13 -13 -13 -14 -14 -14 -14 -14 -15 -15 -15 -15 -15 -16 -17 -18 -17
-7 -6 -7 -8 -7 -6 -7 -7 -7 -8 -9 -8 -9 -8 -9 -13 -11 -11 -11 -8 -8 -9 -10 -9 -9 -9 -9 -9 -9 -9 -9 -10 -9 -10 -11 -11 -12 -13 -14 -15 -16 -16 -17 -17 -17 -17 -16 -16 -15 -15 -15 -16 -16 -16
-8 -9 -7 -7 -6 -5 -7 -6 -6 -8 -9 -9 -10 -12 -12 -10 -12 -12 -9 -9 -9 -10 -10 -10 -10 -10 -10 -10 -10 -10 -10 -11 -12 -12 -12 -12 -14 -15 -15 -16 -15 -15 -14 -15 -15 -16 -18 -24 -24 -19 -17 -16 -16 -16
-7 -7 -10 -8 -7 -7 -10 -11 -10 -9 -10 -8 -9 -10 -10 -11 -11 -10 -10 -10 -10 -11 -10 -10 -10 -10 -11 -11 -11 -11 -12 -13 -13 -13 -14 -14 -14 -14 -14 -14 -14 -14 -15 -15 -18 -27 -28 -27 -26 -24 -21 -18 -17 -17
-9 -8 -9 -10 -8 -8 -9 -11 -11 -9 -8 -8 -11 -12 -11 -10 -9 -10 -10 -10 -11 -11 -11 -10 -10 -10 -11 -11 -11 -12 -13 -14 -14 -14 -14 -15 -15 -15 -15 -16 -15 -17 -21 -28 -30 -29 -28 -27 -26 -24 -21 -19 -19 -19
-8 -8 -9 -11 -13 -11 -10 -9 -9 -9 -9 -9 -8 -8 -8 -9 -9 -10 -10 -11 -11 -11 -11 -11 -11 -11 -12 -12 -12 -12 -12 -13 -13 -14 -15 -16 -17 -20 -23 -24 -25 -29 -30 -30 -30 -29 -28 -26 -23 -22 -21 -20 -20 -23
-9 -8 -9 -10 -13 -11 -11 -10 -10 -10 -11 -11 -11 -10 -10 -11 -11 -11 -11 -11 -10 -10 -12 -12 -11 -12 -11 -11 -11 -12 -13 -13 -12 -13 -13 -14 -17 -21 -21 -24 -29 -30 -30 -30 -30 -29 -28 -25 -23 -22 -21 -22 -24 -25
-10 -9 -10 -12 -11 -11 -12 -13 -13 -13 -13 -13 -13 -12 -12 -12 -12 -12 -12 -11 -10 -10 -11 -11 -12 -12 -11 -10 -11 -12 -13 -14 -14 -14 -15 -16 -21 -22 -24 -28 -30 -31 -31 -31 -31 -31 -29 -26 -25 -25 -25 -26 -26 -25
-10 -10 -10 -11 -12 -13 -14 -14 -13 -13 -12 -12 -12 -13 -12 -13 -13 -13 -13 -14 -12 -11 -11 -10 -11 -11 -10 -11 -11 -11 -11 -13 -15 -14 -15 -16 -19 -23 -28 -30 -31 -32 -32 -32 -31 -30 -29 -28 -27 -26 -25 -25 -25 -25

GFSWCAN_850_dewp_138.txt.gz
Dewpoint
-3 -2 -1 -1 -1 -2 -2 -3 -3 -2 -2 -1 -1 -1 -2 -2 -2 -2 -1 -1 -2 -2 -2 -3 -6 -6 -7 -8 -6 -7 -7 -6 -7 -5 -8 -5 -4 -5 -4 -4 -3 -2 -2 -1 -3 -3 -2 -5 -4 -3 -3 -4 -3 -3
-3 -2 -1 -1 -1 -2 -3 -5 -3 -2 -2 -1 -1 -4 -4 -3 -4 -4 -3 -3 -5 -4 -3 -6 -7 -7 -8 -8 -7 -4 -6 -7 -8 -7 -5 -5 -2 -2 -3 -1 -3 -1 -4 -3 -4 -4 -4 -5 -4 -4 -4 -4 -3 -3
-3 -2 -1 -1 -1 -2 -4 -6 -3 -3 -2 -2 -2 -6 -8 -6 -6 -6 -6 -5 -8 -5 -5 -6 -4 -6 -8 -7 -8 -6 -4 -4 -3 -2 -3 -4 -3 -5 -2 -3 -2 -4 -4 -4 -4 -3 -4 -4 -4 -3 -4 -4 -3 -3
-3 -2 -1 -1 -2 -2 -3 -6 -6 -3 -2 -3 -6 -8 -7 -7 -7 -7 -7 -7 -7 -4 -2 -4 -5 -6 -7 -8 -10 -8 -9 -6 -6 -5 -4 -4 -4 -6 -5 -5 -3 -3 -3 -1 -5 -5 -3 -3 -3 -3 -4 -3 -3 -3
-3 -2 -1 -1 -1 -2 -3 -3 -5 -7 -4 -7 -8 -8 -9 -8 -8 -8 -8 -7 -7 -5 -3 -4 -5 -4 -6 -8 -8 -8 -7 -6 -7 -5 -4 -5 -7 -7 -6 -8 -3 -5 0 -2 -4 -5 -7 -4 -3 -3 -3 -3 -4 -4
-3 -2 -1 -1 -2 -2 -3 -5 -8 -10 -9 -6 -10 -10 -10 -10 -11 -11 -8 -7 -7 -6 -4 -2 -4 -4 -4 -6 -7 -7 -6 -5 -5 -4 -5 -6 -5 -7 -7 -10 -8 -5 -5 -8 -2 -2 -2 -2 -3 -3 -3 -4 -5 -6
-3 -3 -1 -1 -2 -2 -2 -2 -3 -5 -7 -8 -10 -9 -11 -11 -12 -11 -5 -8 -9 -9 -5 -4 -4 -5 -4 -6 -4 -5 -5 -4 -5 -5 -6 -6 -7 -7 -7 -10 -8 -6 -2 -2 -2 -3 -2 -3 -3 -3 -4 -5 -6 -7
-3 -3 -2 -1 -2 -2 -2 -3 -2 -3 -4 -5 -7 -9 -9 -9 -11 -9 -10 -11 -11 -11 -4 -3 -3 -5 -4 -5 -5 -4 -5 -5 -4 -5 -5 -7 -6 -6 -7 -9 -7 -4 -2 -2 -3 -3 -3 -4 -5 -5 -5 -6 -7 -8
-3 -3 -2 -2 -2 -2 -2 -2 -2 -2 -4 -6 -8 -7 -7 -8 -7 -8 -11 -13 -15 -11 -4 -3 -4 -3 -3 -3 -4 -4 -5 -3 -4 -5 -5 -7 -6 -6 -8 -6 -4 -4 -4 -3 -4 -5 -4 -5 -6 -7 -7 -8 -8 -9
-4 -3 -3 -2 -1 -2 -2 -2 -3 -5 -6 -9 -9 -10 -5 -5 -8 -10 -11 -11 -11 -8 -4 -3 -4 -2 -4 -4 -2 -4 -3 -4 -3 -5 -5 -4 -6 -5 -5 -4 -4 -4 -5 -5 -5 -6 -6 -6 -7 -8 -9 -10 -10 -10
-5 -4 -4 -2 -1 -1 -2 -3 -3 -4 -8 -8 -6 -4 -6 -9 -10 -10 -4 -5 -6 -5 -5 -4 -5 -4 -2 -4 -2 -4 -3 -4 -3 -4 -4 -4 -3 -4 -5 -4 -5 -6 -6 -6 -6 -7 -7 -7 -8 -9 -10 -11 -11 -11
-5 -4 -4 -3 -2 -2 -2 -3 -3 -5 -6 -7 -9 -8 -8 -8 -7 -5 -5 -6 -7 -7 -5 -4 -3 -3 -2 -2 -3 -3 -3 -4 -3 -4 -3 -3 -2 -5 -6 -6 -7 -7 -8 -8 -9 -9 -10 -10 -11 -11 -11 -12 -13 -13
-5 -5 -5 -3 -2 -2 -2 -2 -3 -6 -9 -11 -10 -9 -6 -6 -6 -7 -5 -5 -5 -5 -4 -4 -2 -3 -2 -3 -4 -4 -3 -3 -4 -2 -3 -3 -5 -6 -6 -7 -8 -9 -9 -9 -10 -11 -12 -13 -14 -14 -14 -14 -13 -13
-5 -6 -5 -3 -3 -2 -2 -2 -5 -8 -7 -6 -5 -5 -5 -5 -6 -6 -6 -6 -5 -5 -4 -4 -4 -4 -3 -3 -4 -3 -3 -3 -2 -2 -2 -2 -5 -6 -7 -8 -8 -9 -9 -10 -11 -13 -15 -15 -15 -15 -14 -14 -14 -13
-7 -7 -6 -3 -3 -3 -3 -3 -5 -6 -9 -6 -7 -5 -6 -6 -6 -5 -4 -5 -4 -5 -5 -5 -4 -5 -4 -3 -4 -3 -2 -3 -4 -3 -1 -4 -5 -6 -7 -8 -8 -9 -9 -12 -14 -15 -15 -15 -15 -15 -16 -16 -16 -16
-8 -9 -8 -4 -3 -3 -3 -3 -5 -7 -7 -5 -6 -5 -6 -6 -5 -4 -4 -4 -4 -4 -4 -4 -3 -3 -2 -4 -4 -3 -4 -3 -3 -3 -4 -5 -6 -7 -7 -8 -8 -10 -13 -14 -15 -15 -15 -15 -15 -15 -15 -15 -15 -16
-11 -5 -8 -7 -4 -4 -4 -4 -3 -4 -5 -6 -5 -5 -5 -5 -5 -3 -4 -4 -4 -2 -1 -3 -3 -3 -3 -4 -4 -5 -3 -2 -4 -4 -5 -6 -7 -7 -8 -8 -11 -14 -14 -15 -15 -15 -15 -15 -14 -14 -14 -15 -15 -15
-11 -10 -11 -9 -5 -4 -5 -5 -5 -6 -7 -6 -5 -5 -5 -5 -4 -4 -3 -5 -4 -3 -3 -3 -4 -3 -3 -3 -3 -2 -4 -5 -5 -6 -6 -7 -7 -8 -8 -10 -13 -14 -14 -14 -14 -14 -14 -14 -13 -13 -13 -15 -15 -15
-11 -11 -8 -6 -6 -5 -6 -8 -6 -7 -6 -6 -6 -6 -5 -5 -5 -5 -4 -5 -4 -3 -3 -2 -2 -3 -3 -3 -2 -3 -5 -6 -7 -8 -8 -7 -8 -8 -10 -13 -14 -14 -14 -14 -13 -12 -12 -13 -12 -13 -13 -13 -13 -14
-10 -8 -6 -5 -5 -5 -5 -6 -7 -6 -6 -6 -6 -6 -6 -5 -6 -5 -5 -4 -3 -4 -4 -3 -3 -2 -2 -4 -6 -6 -5 -6 -8 -8 -9 -8 -8 -10 -12 -13 -13 -14 -13 -13 -14 -15 -15 -14 -13 -14 -14 -14 -14 -14
-5 -4 -6 -5 -6 -6 -5 -5 -6 -6 -6 -6 -7 -6 -6 -6 -5 -4 -4 -5 -3 -3 -4 -3 -4 -6 -6 -7 -7 -7 -6 -7 -6 -7 -8 -9 -10 -11 -13 -12 -14 -12 -12 -12 -12 -13 -13 -13 -14 -14 -15 -14 -14 -15
-5 -5 -6 -6 -6 -6 -5 -6 -6 -6 -6 -6 -6 -6 -5 -5 -5 -4 -5 -4 -4 -4 -4 -6 -6 -6 -6 -7 -7 -7 -8 -8 -8 -9 -9 -10 -10 -11 -11 -12 -11 -11 -12 -12 -12 -12 -13 -13 -14 -15 -14 -16 -16 -15
-5 -6 -6 -7 -7 -6 -6 -7 -7 -7 -6 -6 -6 -6 -6 -6 -6 -6 -5 -5 -4 -6 -7 -7 -7 -7 -6 -7 -7 -8 -8 -8 -9 -10 -10 -11 -10 -10 -11 -11 -11 -11 -12 -12 -12 -13 -13 -15 -16 -16 -16 -17 -15 -15
-5 -5 -6 -7 -6 -5 -6 -5 -6 -7 -6 -6 -6 -6 -6 -6 -7 -6 -5 -6 -6 -8 -8 -7 -7 -7 -7 -7 -8 -8 -8 -8 -9 -10 -10 -11 -10 -11 -12 -12 -11 -12 -12 -14 -14 -14 -17 -16 -18 -17 -18 -18 -16 -15
-8 -7 -7 -6 -5 -5 -5 -5 -6 -7 -6 -6 -6 -6 -7 -7 -6 -7 -7 -8 -9 -9 -9 -8 -8 -8 -7 -7 -8 -8 -8 -9 -10 -11 -11 -11 -12 -11 -11 -12 -12 -13 -15 -15 -15 -17 -17 -17 -17 -17 -17 -16 -16 -18
-6 -6 -6 -5 -5 -5 -6 -5 -6 -6 -6 -6 -6 -7 -7 -7 -6 -6 -9 -7 -7 -9 -9 -9 -9 -9 -8 -8 -8 -8 -8 -9 -11 -11 -11 -12 -13 -14 -14 -14 -14 -14 -15 -13 -15 -16 -17 -17 -18 -18 -17 -17 -17 -16
-5 -5 -6 -6 -6 -5 -5 -6 -6 -6 -6 -6 -7 -7 -7 -6 -6 -9 -9 -10 -9 -10 -10 -9 -9 -9 -8 -7 -8 -8 -8 -10 -10 -11 -11 -12 -13 -13 -14 -14 -13 -13 -16 -16 -17 -18 -19 -20 -21 -21 -20 -18 -19 -18
-6 -6 -5 -6 -6 -7 -5 -5 -5 -5 -6 -8 -8 -6 -7 -7 -7 -8 -9 -10 -10 -11 -10 -10 -9 -8 -8 -8 -8 -8 -8 -9 -9 -10 -10 -12 -12 -12 -13 -14 -15 -18 -18 -18 -18 -18 -19 -22 -25 -26 -25 -23 -22 -21
-7 -8 -7 -7 -7 -7 -8 -7 -7 -8 -9 -7 -6 -7 -8 -10 -10 -9 -9 -10 -10 -10 -11 -10 -9 -9 -9 -9 -9 -9 -8 -8 -9 -10 -10 -11 -11 -12 -15 -17 -17 -17 -16 -16 -17 -19 -24 -28 -28 -27 -26 -24 -23 -22
-8 -9 -8 -9 -7 -7 -10 -11 -10 -10 -9 -9 -9 -9 -9 -10 -11 -10 -10 -10 -10 -10 -10 -10 -10 -9 -10 -10 -10 -10 -9 -9 -10 -10 -11 -11 -12 -13 -15 -16 -16 -15 -15 -15 -18 -26 -30 -29 -28 -27 -25 -24 -24 -26
-9 -9 -9 -10 -10 -11 -11 -11 -11 -10 -10 -10 -10 -10 -10 -11 -12 -12 -12 -12 -11 -10 -10 -10 -10 -10 -10 -10 -10 -10 -10 -11 -11 -12 -13 -14 -14 -14 -15 -15 -15 -15 -15 -17 -25 -29 -29 -28 -26 -25 -25 -24 -25 -25
-10 -10 -9 -9 -10 -12 -12 -13 -13 -12 -12 -11 -12 -12 -12 -11 -12 -14 -14 -14 -13 -12 -12 -11 -11 -11 -11 -11 -11 -11 -11 -11 -12 -13 -13 -14 -15 -16 -17 -19 -19 -19 -21 -27 -29 -28 -28 -27 -26 -25 -25 -24 -24 -25
-11 -11 -11 -11 -11 -11 -14 -14 -13 -12 -12 -12 -13 -14 -14 -13 -14 -16 -15 -15 -14 -13 -13 -12 -12 -12 -12 -11 -11 -11 -11 -12 -13 -12 -12 -13 -14 -15 -17 -21 -23 -26 -29 -29 -28 -28 -28 -27 -25 -25 -25 -25 -25 -25

GFSWCAN_850_dewp_141.txt.gz
Dewpoint
-4 -3 -1 -1 -1 -2 -2 -2 -2 -2 -2 -1 -1 -1 -0 0 0 0 0 1 -1 0 1 -1 -1 -1 -3 -3 -1 -2 -3 -4 -3 -2 -3 -3 -3 -7 -5 -8 -8 -8 -5 -2 -4 -4 -3 -5 -5 -4 -2 -4 -3 -3
-4 -2 -1 -1 -2 -2 -2 -2 -2 -1 -2 -2 -1 -1 -1 0 1 1 0 -0 -1 -2 -0 0 -0 -1 -1 -4 -4 -4 -4 -5 -5 -2 -4 -6 -4 -4 -5 -2 -9 -3 -6 -4 -6 -4 -3 -6 -5 -4 -5 -5 -3 -3
-4 -2 -1 -1 -3 -3 -3 -2 -1 -2 -3 -5 -4 -3 -1 -1 -0 -1 -0 -1 -2 -1 -1 -1 -1 -1 -3 -4 -6 -2 -5 -4 -3 -6 -4 -5 -2 -5 -2 -2 -2 -4 -5 -3 -3 -3 -5 -6 -5 -5 -5 -4 -4 -4
-3 -2 -1 -1 -3 -3 -3 -3 -2 -3 -7 -7 -6 -4 -4 -3 -3 -1 -0 -1 -2 -2 -0 -2 -2 -2 -3 -4 -3 -5 -4 -4 -3 -5 -4 -3 -4 -5 -5 -4 -3 -3 -4 -4 -5 -6 -5 -5 -5 -4 -4 -4 -3 -4
-3 -2 -1 -2 -3 -4 -4 -3 -3 -6 -8 -6 -3 -3 -3 -3 -2 -2 -2 -3 -4 -4 -1 -2 -3 -3 -4 -4 -6 -3 -4 -5 -6 -6 -2 -5 -7 -6 -7 -7 0 -4 1 -1 -3 -5 -6 -4 -4 -4 -3 -3 -4 -4
-3 -1 -1 -2 -3 -4 -4 -4 -5 -7 -8 -8 -6 -5 -6 -5 -5 -3 -2 -4 -4 -5 -4 -2 -2 -3 -3 -4 -4 -5 -6 -7 -7 -5 -6 -6 -6 -7 -5 -8 -5 -4 -2 -1 -3 -4 -4 -3 -3 -3 -3 -3 -4 -5
-2 -1 -1 -2 -2 -3 -6 -9 -8 -6 -8 -10 -11 -11 -8 -5 -5 -3 -2 -3 -4 -4 -3 -2 -4 -5 -4 -5 -5 -4 -4 -5 -6 -7 -7 -9 -10 -8 -8 -9 -9 -7 -4 -2 -2 -2 -2 -3 -3 -3 -3 -4 -5 -7
-3 -1 -2 -2 -3 -5 -5 -6 -7 -8 -9 -9 -10 -10 -9 -8 -7 -8 -9 -7 -4 -4 -4 -2 -3 -5 -5 -6 -4 -6 -6 -6 -6 -6 -7 -7 -8 -9 -8 -10 -8 -5 -4 -4 -4 -3 -2 -3 -3 -3 -4 -5 -6 -7
-3 -2 -2 -2 -2 -3 -4 -5 -6 -7 -7 -8 -9 -10 -10 -8 -5 -6 -13 -12 -12 -3 -4 -3 -3 -2 -4 -6 -6 -6 -7 -3 -6 -5 -7 -9 -7 -7 -8 -8 -7 -6 -6 -5 -4 -4 -4 -4 -5 -6 -6 -7 -8 -9
-3 -2 -2 -2 -2 -3 -3 -5 -6 -4 -6 -9 -9 -10 -7 -8 -12 -13 -10 -10 -5 -3 -4 -2 -5 -2 -5 -5 -4 -4 -5 -5 -3 -6 -7 -5 -2 -5 -5 -6 -5 -5 -4 -5 -5 -5 -5 -6 -6 -7 -8 -9 -9 -10
-3 -2 -2 -2 -2 -2 -2 -3 -3 -8 -9 -8 -5 -2 -5 -11 -6 -5 -2 -3 -5 -4 -5 -2 -5 -3 -5 -4 -2 -4 -3 -4 -4 -5 -5 -5 -2 -4 -5 -5 -5 -5 -5 -5 -5 -6 -6 -6 -7 -8 -9 -10 -10 -10
-4 -2 -1 -2 -3 -3 -4 -6 -7 -8 -7 -6 -9 -11 -10 -5 -4 -2 -4 -6 -8 -5 -4 -5 -5 -5 -3 -4 -3 -4 -4 -4 -3 -6 -3 -3 -2 -5 -5 -5 -5 -5 -6 -7 -7 -8 -8 -9 -9 -9 -10 -10 -12 -13
-4 -3 -1 -1 -2 -3 -3 -4 -6 -10 -8 -10 -5 -8 -5 -5 -4 -5 -4 -5 -4 -4 -4 -5 -2 -4 -3 -4 -3 -3 -2 -1 -5 -2 -3 -1 -4 -5 -5 -6 -6 -7 -8 -8 -9 -10 -10 -10 -11 -12 -13 -13 -12 -12
-4 -4 -2 -1 -1 -2 -3 -4 -8 -10 -4 -4 -4 -4 -2 -3 -4 -4 -5 -4 -4 -5 -4 -5 -4 -4 -3 -3 -3 -3 -3 -3 -2 -2 -2 -2 -5 -5 -6 -7 -7 -8 -9 -9 -10 -11 -14 -14 -15 -14 -14 -13 -13 -13
-4 -3 -2 -2 -1 -1 -2 -6 -8 -10 -6 -4 -5 -2 -3 -5 -4 -4 -4 -4 -4 -4 -6 -5 -6 -6 -4 -2 -4 -4 -2 -3 -4 -3 -0 -3 -5 -6 -6 -6 -7 -8 -9 -10 -13 -14 -15 -15 -15 -15 -15 -14 -15 -15
-4 -3 -3 -2 -2 -2 -3 -7 -6 -5 -5 -5 -5 -4 -5 -4 -3 -3 -2 -2 -5 -6 -6 -7 -7 -3 -2 -4 -4 -3 -4 -3 -2 -0 -3 -4 -5 -6 -6 -7 -8 -9 -11 -14 -15 -15 -15 -15 -15 -15 -16 -16 -16 -16
-6 -4 -3 -3 -3 -2 -4 -5 -6 -5 -5 -5 -4 -3 -3 -3 -3 -3 -3 -4 -3 -3 1 -4 -3 -4 -5 -6 -6 -6 -2 -0 -2 -3 -4 -5 -5 -6 -8 -8 -9 -12 -14 -14 -15 -15 -15 -14 -15 -15 -14 -15 -14 -16
-9 -7 -3 -4 -3 -3 -5 -5 -5 -6 -6 -5 -5 -4 -4 -3 -3 -3 -3 -1 -3 -4 -6 -4 -5 -5 -4 -5 -5 -1 -3 -3 -3 -4 -5 -5 -6 -7 -8 -9 -12 -14 -14 -14 -14 -14 -14 -14 -12 -11 -12 -13 -14 -14
-11 -9 -5 -4 -5 -5 -5 -5 -6 -6 -6 -5 -5 -4 -4 -4 -4 -3 -3 -2 -2 -3 -3 -5 -2 -5 -4 -3 -1 -1 -3 -4 -4 -5 -6 -7 -7 -8 -9 -11 -13 -13 -14 -14 -12 -11 -11 -11 -11 -11 -11 -12 -12 -12
-10 -9 -9 -6 -6 -5 -5 -5 -5 -6 -5 -6 -6 -5 -4 -4 -4 -4 -3 -2 -4 -5 -4 -4 -4 -2 -1 -2 -2 -2 -3 -4 -6 -7 -7 -8 -8 -9 -10 -12 -10 -11 -11 -11 -11 -11 -11 -11 -11 -11 -12 -12 -12 -12
-5 -5 -6 -6 -5 -5 -5 -6 -6 -6 -6 -6 -6 -6 -5 -5 -4 -4 -4 -3 -3 -5 -6 -5 -1 -4 -6 -7 -6 -4 -4 -5 -5 -5 -6 -8 -9 -9 -10 -9 -10 -10 -10 -10 -11 -11 -11 -11 -11 -12 -13 -12 -12 -13
-5 -5 -4 -6 -5 -5 -5 -6 -6 -6 -5 -6 -6 -6 -6 -5 -5 -4 -4 -5 -5 -5 -3 -2 -2 -5 -6 -7 -7 -5 -6 -5 -5 -5 -6 -8 -8 -9 -9 -9 -9 -9 -10 -10 -11 -11 -11 -11 -12 -12 -13 -13 -14 -14
-5 -5 -7 -5 -5 -5 -5 -5 -6 -6 -5 -5 -6 -5 -5 -5 -4 -5 -5 -5 -4 -4 -4 -5 -7 -7 -6 -6 -7 -7 -7 -6 -6 -6 -7 -7 -7 -8 -9 -9 -9 -9 -10 -10 -10 -11 -11 -12 -13 -13 -13 -14 -14 -14
-5 -5 -6 -4 -5 -5 -5 -6 -7 -7 -7 -6 -6 -5 -6 -6 -6 -6 -5 -5 -4 -6 -7 -7 -7 -7 -7 -7 -7 -7 -7 -6 -6 -7 -7 -7 -8 -8 -9 -9 -9 -9 -10 -10 -11 -11 -12 -13 -13 -13 -14 -13 -13 -13
-5 -6 -4 -5 -5 -5 -5 -5 -6 -6 -5 -6 -5 -5 -6 -6 -5 -5 -5 -5 -6 -5 -6 -7 -7 -6 -5 -5 -5 -7 -7 -6 -6 -7 -8 -7 -8 -8 -9 -9 -10 -10 -10 -11 -11 -11 -13 -13 -13 -13 -13 -13 -14 -14
-5 -5 -5 -5 -5 -5 -6 -4 -5 -5 -6 -5 -6 -7 -7 -5 -5 -4 -7 -5 -5 -6 -7 -7 -7 -7 -7 -6 -6 -7 -8 -7 -7 -7 -8 -8 -8 -9 -9 -9 -10 -10 -11 -11 -11 -12 -12 -13 -13 -13 -14 -14 -14 -14
-5 -5 -5 -5 -5 -6 -5 -6 -6 -6 -5 -5 -6 -6 -5 -4 -4 -7 -7 -8 -7 -8 -9 -9 -8 -7 -7 -7 -7 -7 -8 -8 -7 -7 -8 -9 -9 -9 -9 -9 -10 -10 -12 -12 -12 -12 -12 -13 -13 -14 -14 -14 -15 -15
-5 -5 -4 -5 -5 -5 -5 -5 -4 -4 -4 -6 -6 -5 -4 -4 -5 -7 -9 -9 -10 -10 -10 -9 -9 -9 -8 -8 -9 -8 -9 -8 -9 -9 -9 -10 -10 -10 -10 -10 -10 -11 -12 -12 -12 -12 -12 -13 -13 -14 -14 -14 -15 -16
-5 -6 -6 -5 -5 -5 -6 -4 -5 -7 -8 -5 -3 -5 -7 -9 -11 -10 -10 -10 -9 -9 -9 -10 -9 -9 -9 -9 -8 -8 -8 -9 -9 -9 -10 -10 -11 -11 -12 -13 -13 -13 -15 -16 -16 -15 -15 -14 -15 -15 -15 -15 -17 -21
-7 -7 -6 -6 -5 -5 -8 -9 -8 -10 -9 -9 -8 -9 -9 -12 -12 -11 -10 -10 -10 -11 -10 -10 -10 -10 -10 -10 -9 -9 -9 -9 -10 -9 -9 -9 -10 -11 -12 -13 -15 -17 -18 -18 -17 -17 -18 -21 -27 -27 -23 -25 -25 -24
-8 -7 -7 -7 -7 -9 -10 -10 -10 -10 -10 -9 -9 -7 -9 -12 -13 -13 -13 -13 -12 -12 -12 -11 -11 -11 -11 -10 -10 -10 -10 -10 -10 -10 -10 -10 -10 -11 -11 -13 -16 -17 -16 -16 -16 -17 -23 -29 -28 -27 -25 -24 -24 -25
-8 -8 -8 -7 -9 -11 -11 -9 -9 -9 -9 -9 -9 -9 -10 -10 -11 -14 -14 -14 -15 -15 -13 -13 -13 -12 -12 -11 -11 -11 -11 -11 -10 -10 -11 -12 -14 -15 -13 -13 -15 -15 -15 -15 -16 -20 -28 -27 -19 -18 -19 -21 -25 -24
-9 -8 -9 -9 -9 -9 -10 -10 -11 -10 -10 -10 -11 -11 -11 -11 -13 -16 -16 -15 -15 -15 -14 -13 -13 -12 -12 -12 -12 -11 -11 -11 -11 -11 -12 -13 -14 -15 -16 -16 -15 -15 -15 -15 -19 -27 -27 -25 -19 -17 -17 -20 -24 -25

GFSWCAN_850_dewp_147.txt.gz
Dewpoint
-6 -6 -7 -7 -4 -3 -1 -1 -2 -2 -2 -2 -2 -2 -2 -2 -2 -2 -2 -1 -2 -2 -4 -6 -6 -6 -4 -3 -1 -0 1 2 2 3 1 2 1 -1 -3 -3 -2 -2 -1 -1 -1 1 2 -6 -6 -3 -0 -2 -3 -3
-7 -8 -10 -4 -3 -2 -2 -2 -2 -2 -2 -2 -2 -1 -1 -1 -1 -2 -2 -1 -0 -2 -2 -3 -5 -5 -6 -4 -3 1 -0 1 1 2 1 -1 -0 -1 -2 -1 -5 -2 -2 -1 -1 0 -2 -4 -2 -2 -2 -2 -2 -3
-8 -10 -4 -3 -2 -2 -2 -3 -2 -2 -1 -1 -1 -1 -0 0 0 -1 -2 -2 -1 -0 -1 -1 -2 -2 -2 -2 -3 1 0 -1 -1 -2 -0 1 2 -0 0 1 -3 -4 -7 0 -1 -1 -2 -4 -4 -3 -3 -3 -3 -4
-10 -4 -3 -2 -2 -3 -3 -2 -2 -1 -1 -1 -1 -0 1 0 2 1 -2 -1 -1 -0 -0 -0 -0 1 -0 0 -0 -1 -1 -3 -1 -2 1 1 2 1 2 1 -1 -1 -5 0 -0 -1 -4 -5 -3 -3 -3 -4 -5 -4
-6 -4 -2 -2 -2 -3 -3 -2 -2 -1 -1 -0 -0 0 1 -0 -1 -1 -1 -1 -2 -1 0 -0 0 0 1 1 1 -0 -2 -1 0 1 1 1 0 -0 1 1 1 -1 -0 2 2 -3 -3 -3 -4 -3 -4 -4 -4 -5
-4 -2 -2 -2 -2 -4 -3 -2 -1 -1 -1 -1 -1 0 1 1 0 -0 0 -0 -1 -2 -0 0 -1 1 1 1 1 0 -0 0 1 0 -1 -3 -4 -2 1 2 0 -1 -3 -3 -1 -3 -3 -3 -4 -4 -4 -4 -4 -5
-3 -2 -2 -2 -3 -3 -4 -3 -3 -2 -0 -1 -1 -0 -0 -0 0 -1 -0 0 -0 -2 -1 -0 -0 -0 0 1 1 1 1 0 -2 -4 -4 -4 -6 -5 -1 -0 -1 -1 -2 -2 -4 -4 -3 -3 -3 -4 -4 -5 -7 -7
-2 -2 -2 -2 -2 -3 -3 -3 -3 -3 -1 -1 -1 -1 -1 -0 -1 -0 -0 -0 -0 -2 -2 -0 -1 -0 0 0 0 0 -1 -5 -6 -6 -6 -5 -6 -5 -2 -2 -2 -2 -2 -2 -3 -4 -3 -3 -4 -5 -6 -6 -7 -8
-2 -2 -2 -3 -3 -4 -4 -4 -2 -1 -2 -1 -1 -2 -1 -1 -1 -1 -2 -2 -3 -3 -1 -1 -0 -0 -1 -2 -4 -5 -5 -2 -6 -2 -5 -6 -4 -3 -4 -4 -3 -3 -3 -2 -3 -3 -4 -5 -5 -5 -6 -6 -8 -8
-2 -3 -3 -3 -3 -4 -5 -6 -5 -2 -2 -3 -5 -5 -2 -3 -5 -7 -7 -4 -4 -4 -4 -1 -3 -0 -2 -3 -1 -2 -5 -1 -0 -4 -5 -1 -2 -6 -6 -5 -4 -4 -4 -6 -4 -3 -5 -5 -6 -7 -7 -8 -8 -8
-2 -2 -4 -3 -3 -4 -5 -7 -8 -9 -9 -7 -9 -6 -4 -7 -10 -9 -4 -2 -2 0 -1 -4 -4 -3 -5 -2 -1 -3 -2 -2 -2 -4 -2 -1 -1 -3 -4 -5 -5 -5 -5 -5 -5 -5 -6 -6 -8 -8 -9 -9 -9 -9
-2 -2 -3 -5 -4 -4 -5 -7 -9 -10 -9 -8 -9 -11 -9 -5 -4 -3 -2 -3 -2 0 -1 -2 -2 -2 -3 -4 -2 -3 -2 -1 -2 -4 -2 -0 -3 -4 -4 -5 -5 -5 -5 -5 -5 -6 -6 -7 -7 -8 -9 -9 -11 -13
-2 -2 -3 -3 -4 -4 -6 -5 -6 -9 -9 -10 -11 -6 -4 -4 -3 -3 -3 -2 -2 -1 -1 -4 -2 -3 -3 -4 -2 -2 -3 -2 -3 -4 -1 -1 -3 -4 -4 -5 -5 -6 -5 -5 -6 -6 -6 -7 -8 -9 -11 -13 -13 -13
-2 -2 -3 -4 -5 -7 -7 -7 -7 -6 -5 -4 -4 -5 -4 -3 -1 -1 -2 -2 -2 -2 -3 -3 -2 -2 -3 -2 -3 -3 -2 -2 -3 -3 -0 -2 -4 -5 -5 -6 -6 -7 -7 -7 -8 -8 -8 -8 -10 -13 -13 -13 -14 -14
-2 -3 -4 -5 -5 -6 -9 -9 -11 -9 -5 -4 -5 -3 -2 -2 -1 -2 -3 -3 -3 -4 -4 -3 -3 -3 -2 -3 -3 -3 -2 -2 -3 -1 -3 -4 -5 -6 -6 -6 -7 -8 -8 -8 -9 -10 -12 -13 -14 -14 -14 -15 -15 -16
-2 -3 -3 -3 -4 -6 -9 -7 -8 -5 -5 -4 -3 -2 -1 -2 -1 -2 -2 -3 -4 -5 -6 -6 -3 -3 -2 -2 -3 -3 -2 -2 -0 -1 -3 -5 -5 -6 -6 -7 -7 -8 -9 -10 -13 -14 -14 -14 -14 -15 -15 -16 -16 -17
-2 -2 -2 -2 -3 -8 -8 -8 -6 -5 -4 -3 -3 -2 -2 -1 -1 -0 -1 -2 -4 -5 -3 -3 -4 -3 -3 -4 -2 -1 -0 -1 -2 -3 -5 -5 -5 -6 -6 -7 -8 -8 -9 -13 -14 -14 -15 -15 -15 -16 -16 -16 -17 -17
-4 -2 -2 -3 -6 -8 -8 -6 -6 -6 -5 -4 -4 -3 -2 -2 -1 -2 -2 -3 -3 -3 -4 -4 -6 -4 -4 -3 -2 -2 -3 -2 -3 -5 -5 -5 -6 -6 -6 -7 -8 -9 -12 -14 -14 -15 -15 -16 -16 -16 -16 -16 -17 -16
-3 -3 -2 -4 -7 -8 -6 -5 -6 -5 -5 -4 -4 -5 -4 -4 -3 -3 -4 -5 -6 -5 -5 -5 -3 -2 -1 -1 -3 -4 -4 -4 -4 -5 -5 -5 -6 -6 -7 -8 -9 -11 -13 -14 -14 -14 -15 -15 -14 -15 -16 -16 -15 -14
-3 -4 -5 -6 -9 -6 -5 -5 -5 -5 -4 -5 -5 -5 -5 -4 -4 -4 -4 -5 -7 -6 -3 -3 -2 -3 -3 -3 -4 -4 -4 -4 -5 -5 -6 -6 -7 -8 -7 -9 -10 -13 -13 -14 -14 -15 -12 -10 -10 -12 -14 -12 -12 -12
-6 -6 -7 -10 -8 -6 -5 -5 -6 -6 -5 -5 -4 -5 -5 -5 -5 -4 -4 -5 -5 -3 -3 -3 -4 -4 -4 -4 -3 -4 -4 -5 -5 -6 -6 -7 -8 -7 -9 -10 -11 -12 -13 -12 -11 -12 -12 -11 -11 -11 -12 -11 -11 -12
-6 -7 -9 -9 -6 -6 -5 -6 -6 -5 -5 -6 -6 -6 -6 -5 -5 -5 -5 -5 -3 -3 -2 -3 -4 -5 -4 -4 -4 -4 -5 -5 -5 -6 -7 -7 -8 -8 -9 -10 -10 -12 -12 -11 -11 -11 -12 -11 -11 -11 -11 -11 -12 -13
-8 -8 -6 -5 -6 -6 -5 -4 -5 -5 -5 -4 -6 -6 -6 -6 -6 -5 -6 -4 -4 -4 -4 -4 -4 -4 -5 -5 -4 -4 -5 -5 -4 -5 -6 -8 -8 -8 -9 -9 -10 -10 -10 -10 -10 -11 -11 -10 -11 -12 -13 -12 -12 -13
-7 -7 -5 -5 -6 -5 -7 -6 -7 -6 -6 -4 -6 -6 -6 -6 -6 -6 -6 -4 -5 -5 -5 -5 -5 -6 -6 -5 -5 -5 -5 -5 -5 -5 -7 -7 -7 -8 -8 -8 -9 -9 -10 -10 -10 -11 -10 -10 -11 -12 -13 -13 -13 -13
-5 -5 -5 -5 -5 -6 -6 -7 -6 -6 -7 -5 -7 -7 -7 -7 -7 -7 -5 -4 -5 -6 -7 -6 -6 -6 -5 -6 -5 -6 -5 -5 -5 -6 -7 -7 -7 -7 -8 -8 -9 -9 -9 -10 -10 -10 -11 -10 -11 -12 -13 -13 -13 -14
-6 -5 -5 -6 -6 -7 -6 -7 -7 -7 -7 -7 -5 -6 -7 -7 -7 -6 -5 -6 -7 -7 -7 -7 -7 -7 -6 -5 -6 -6 -6 -6 -6 -6 -7 -7 -7 -8 -8 -9 -9 -9 -9 -9 -10 -10 -11 -11 -11 -13 -13 -13 -13 -13
-5 -5 -6 -6 -7 -6 -6 -6 -6 -7 -7 -7 -7 -7 -7 -8 -7 -6 -8 -8 -8 -8 -9 -8 -8 -7 -7 -7 -6 -6 -6 -6 -6 -7 -7 -7 -7 -8 -8 -9 -9 -10 -10 -9 -9 -10 -11 -11 -12 -13 -13 -13 -14 -14
-6 -6 -4 -6 -6 -5 -6 -7 -6 -6 -5 -7 -6 -7 -7 -8 -8 -10 -10 -10 -9 -9 -9 -9 -8 -8 -7 -7 -7 -6 -7 -7 -6 -6 -7 -7 -7 -8 -8 -8 -9 -9 -9 -10 -10 -11 -11 -12 -13 -13 -13 -13 -14 -14
-5 -5 -5 -6 -4 -5 -6 -6 -5 -7 -7 -5 -5 -8 -9 -12 -12 -11 -11 -10 -9 -9 -9 -9 -9 -9 -9 -9 -8 -8 -8 -8 -7 -7 -7 -8 -8 -8 -8 -8 -9 -9 -9 -10 -11 -11 -11 -12 -12 -13 -13 -13 -14 -13
-6 -6 -5 -5 -6 -7 -8 -8 -8 -8 -7 -7 -8 -11 -12 -13 -13 -12 -11 -11 -10 -10 -10 -10 -10 -9 -10 -10 -10 -10 -9 -9 -9 -8 -8 -9 -9 -9 -9 -9 -9 -9 -10 -10 -11 -12 -12 -12 -12 -13 -13 -13 -13 -14
-7 -6 -6 -6 -7 -9 -9 -9 -8 -8 -8 -8 -8 -10 -13 -14 -14 -13 -13 -13 -12 -11 -11 -11 -11 -10 -10 -10 -10 -10 -10 -10 -10 -10 -9 -9 -9 -9 -9 -10 -10 -10 -11 -11 -11 -12 -12 -12 -12 -12 -13 -13 -14 -15
-8 -7 -6 -7 -8 -9 -8 -7 -7 -8 -8 -8 -8 -10 -11 -11 -14 -15 -15 -15 -14 -14 -13 -13 -12 -12 -11 -11 -11 -11 -11 -10 -10 -10 -11 -10 -9 -9 -10 -10 -11 -11 -11 -12 -12 -14 -13 -13 -13 -14 -14 -16 -18 -20
-8 -8 -7 -8 -8 -8 -9 -7 -8 -8 -8 -9 -10 -10 -12 -13 -14 -16 -16 -16 -16 -15 -15 -14 -13 -13 -13 -13 -12 -12 -12 -11 -11 -11 -11 -11 -11 -11 -11 -11 -12 -12 -12 -14 -15 -16 -16 -15 -16 -19 -19 -20 -18 -19